EDT,Max TemperatureF,Mean TemperatureF,Min TemperatureF,Max Dew PointF,MeanDew PointF,Min DewpointF,Max Humidity, Mean Humidity, Min Humidity, Max Sea Level PressureIn, Mean Sea Level PressureIn, Min Sea Level PressureIn, Max VisibilityMiles, Mean VisibilityMiles, Min VisibilityMiles, Max Wind SpeedMPH, Mean Wind SpeedMPH, Max Gust SpeedMPH,PrecipitationIn, CloudCover, Events, WindDirDegrees
2012-9-1,80,73,66,75,64,57,100,73,47,30.12,30.08,30.03,10,10,2,8,3,,0.00,3,Rain,95
2012-9-2,80,73,66,79,71,66,100,96,78,30.05,29.99,29.94,10,10,10,13,3,16,0.00,5,Rain,76
2012-9-3,84,75,66,79,73,66,100,91,62,29.96,29.92,29.88,10,9,2,13,4,,0.00,1,,89
2012-9-4,91,78,66,73,69,64,100,84,65,29.91,29.86,29.83,10,4,0,8,1,9,0.00,5,Fog-Rain,26
2012-9-5,78,70,62,70,67,63,100,88,65,29.90,29.85,29.78,10,6,0,10,2,,0.00,3,Fog-Rain,174
2012-9-6,80,72,64,72,67,63,100,86,65,29.90,29.87,29.82,10,6,0,6,1,,0.00,4,Fog,140
2012-9-7,82,68,55,66,60,55,100,76,47,29.91,29.83,29.69,10,10,4,12,3,17,0.00,1,Rain,227
2012-9-8,71,63,55,63,53,46,100,71,41,29.85,29.73,29.63,10,10,4,17,10,25,0.00,5,Rain,303
2012-9-9,71,60,48,54,48,45,100,72,40,30.08,29.95,29.85,10,10,7,8,2,,0.00,3,,335
2012-9-10,71,58,44,54,48,43,100,72,35,30.22,30.16,30.09,10,10,10,10,2,,0.00,0,,178
2012-9-11,78,62,46,54,51,46,100,67,36,30.23,30.19,30.14,10,10,7,13,3,18,0.00,0,,209
2012-9-12,82,66,51,59,54,50,94,66,37,30.24,30.20,30.16,10,10,10,12,3,18,0.00,0,,204
2012-9-13,84,70,57,61,56,48,94,64,30,30.26,30.21,30.17,10,10,10,14,3,24,0.00,4,,226
2012-9-14,71,61,51,61,52,39,100,75,31,30.28,30.23,30.19,10,9,5,15,6,20,0.00,5,Rain,337
2012-9-15,69,56,44,52,46,43,93,69,38,30.32,30.25,30.16,10,10,10,9,3,,0.00,0,,255
2012-9-16,77,62,46,55,48,45,94,65,34,30.16,30.09,30.02,10,10,10,13,2,20,0.00,1,,202
2012-9-17,77,62,48,63,52,45,94,66,38,30.03,29.90,29.73,10,10,3,12,3,16,0.00,2,Rain,184
2012-9-18,66,55,44,64,50,36,100,76,51,29.97,29.73,29.59,10,8,3,17,8,31,0.00,5,Rain,293
2012-9-19,66,50,35,45,38,36,100,63,32,30.11,30.05,29.97,10,10,10,14,5,21,0.00,0,,215
2012-9-20,69,60,51,54,46,39,88,63,46,30.01,29.91,29.85,10,10,5,15,9,23,0.00,4,Rain,210
2012-9-21,69,56,44,52,44,37,100,72,31,29.93,29.88,29.77,10,10,7,15,3,22,0.00,2,Rain,212
2012-9-22,59,52,42,52,48,43,100,89,63,30.08,29.86,29.73,10,9,0,17,4,34,0.00,5,Rain,267
2012-9-23,57,48,39,45,41,36,100,78,47,30.21,30.14,30.08,10,10,2,12,4,20,0.00,5,Rain,282
2012-9-24,64,48,33,39,36,32,100,64,30,30.21,30.10,29.95,10,10,2,17,4,25,0.00,0,,225
2012-9-25,71,58,46,59,46,36,94,66,47,29.97,29.92,29.87,10,10,5,14,8,20,0.00,5,,211
2012-9-26,73,63,53,63,58,46,100,86,65,30.13,29.98,29.88,10,6,0,13,3,18,0.00,5,Fog,121
2012-9-27,66,56,46,50,45,37,100,66,45,30.21,30.17,30.14,10,10,10,13,6,20,0.00,2,,80
2012-9-28,66,56,46,50,46,43,100,73,45,30.16,30.12,30.07,10,10,10,9,2,,0.00,4,,120
2012-9-29,71,56,41,52,45,39,100,73,31,30.08,30.00,29.92,10,9,4,10,1,16,0.00,2,,330
2012-9-30,64,54,44,48,46,41,100,74,48,29.95,29.92,29.88,10,10,7,13,5,21,0.00,3,,24